Time,TemperatureF,DewpointF,PressureIn,WindDirection,WindDirectionDegrees,WindSpeedMPH,WindSpeedGustMPH,Humidity,HourlyPrecipIn,Conditions,Clouds,dailyrainin,SolarRadiationWatts/m^2,SoftwareType,DateUTC
2013-02-23 00:10:00,25.4,19.0,30.24,SE,142,8.0,10.0,76,0.00,,,0.00,0,weatherlink.com 1.10,2013-02-23 05:10:00,
2013-02-23 00:25:00,25.1,19.0,30.24,SSW,196,5.0,11.0,78,0.00,,,0.00,0,weatherlink.com 1.10,2013-02-23 05:25:00,
2013-02-23 00:40:00,24.8,19.0,30.23,SSE,153,5.0,12.0,80,0.00,,,0.00,0,weatherlink.com 1.10,2013-02-23 05:40:00,
2013-02-23 00:55:00,24.7,20.0,30.23,South,178,1.0,10.0,81,0.00,,,0.00,0,weatherlink.com 1.10,2013-02-23 05:55:00,
2013-02-23 01:10:00,24.8,20.0,30.23,SSE,154,5.0,14.0,82,0.00,,,0.00,0,weatherlink.com 1.10,2013-02-23 06:10:00,
2013-02-23 01:25:00,24.7,21.0,30.23,SE,146,10.0,16.0,84,0.00,,,0.00,0,weatherlink.com 1.10,2013-02-23 06:25:00,
2013-02-23 01:40:00,24.8,21.0,30.22,SSW,201,6.0,13.0,85,0.00,,,0.00,0,weatherlink.com 1.10,2013-02-23 06:40:00,
2013-02-23 01:55:00,24.7,21.0,30.22,SSE,153,3.0,13.0,86,0.00,,,0.00,0,weatherlink.com 1.10,2013-02-23 06:55:00,
2013-02-23 02:10:00,24.5,22.0,30.22,South,176,9.0,12.0,88,0.00,,,0.00,0,weatherlink.com 1.10,2013-02-23 07:10:00,
2013-02-23 02:25:00,24.4,21.0,30.21,SE,139,0.0,13.0,88,0.00,,,0.00,0,weatherlink.com 1.10,2013-02-23 07:25:00,
2013-02-23 02:40:00,24.3,22.0,30.21,SSE,157,4.0,14.0,89,0.00,,,0.00,0,weatherlink.com 1.10,2013-02-23 07:40:00,
2013-02-23 02:55:00,24.1,22.0,30.20,SSE,167,4.0,12.0,90,0.00,,,0.00,0,weatherlink.com 1.10,2013-02-23 07:55:00,
2013-02-23 03:10:00,24.1,22.0,30.20,SSE,156,5.0,8.0,90,0.00,,,0.00,0,weatherlink.com 1.10,2013-02-23 08:10:00,
2013-02-23 03:25:00,23.9,21.0,30.19,SSE,152,2.0,8.0,90,0.00,,,0.00,0,weatherlink.com 1.10,2013-02-23 08:25:00,
2013-02-23 03:40:00,23.8,21.0,30.19,SSE,155,5.0,10.0,90,0.00,,,0.00,0,weatherlink.com 1.10,2013-02-23 08:40:00,
2013-02-23 03:56:00,23.7,22.0,30.19,SSE,150,2.0,6.0,91,0.00,,,0.00,0,weatherlink.com 1.10,2013-02-23 08:56:00,
2013-02-23 04:10:00,23.7,22.0,30.18,SSE,153,4.0,9.0,91,0.00,,,0.00,0,weatherlink.com 1.10,2013-02-23 09:10:00,
2013-02-23 04:26:00,23.6,21.0,30.18,SSW,196,7.0,10.0,91,0.00,,,0.00,0,weatherlink.com 1.10,2013-02-23 09:26:00,
2013-02-23 04:41:00,23.6,21.0,30.18,SSW,198,6.0,8.0,91,0.00,,,0.00,0,weatherlink.com 1.10,2013-02-23 09:41:00,
2013-02-23 04:55:00,23.5,22.0,30.18,SSE,153,6.0,7.0,92,0.00,,,0.00,0,weatherlink.com 1.10,2013-02-23 09:55:00,
2013-02-23 05:10:00,23.4,22.0,30.17,South,182,8.0,8.0,92,0.00,,,0.00,0,weatherlink.com 1.10,2013-02-23 10:10:00,
2013-02-23 05:25:00,23.4,22.0,30.17,South,191,3.0,11.0,92,0.00,,,0.00,0,weatherlink.com 1.10,2013-02-23 10:25:00,
2013-02-23 05:40:00,23.4,22.0,30.17,South,169,6.0,10.0,92,0.00,,,0.00,0,weatherlink.com 1.10,2013-02-23 10:40:00,
2013-02-23 05:56:00,23.4,22.0,30.17,SE,135,0.0,8.0,92,0.00,,,0.00,0,weatherlink.com 1.10,2013-02-23 10:56:00,
2013-02-23 06:11:00,23.3,21.0,30.16,SE,143,3.0,7.0,91,0.00,,,0.00,0,weatherlink.com 1.10,2013-02-23 11:11:00,
2013-02-23 06:26:00,23.3,21.0,30.15,ESE,121,4.0,9.0,91,0.00,,,0.00,0,weatherlink.com 1.10,2013-02-23 11:26:00,
2013-02-23 06:41:00,23.3,21.0,30.15,SE,128,6.0,7.0,91,0.00,,,0.00,0,weatherlink.com 1.10,2013-02-23 11:41:00,
2013-02-23 06:57:00,23.2,21.0,30.15,South,188,4.0,9.0,91,0.00,,,0.00,0,weatherlink.com 1.10,2013-02-23 11:57:00,
2013-02-23 07:11:00,23.2,21.0,30.15,South,191,3.0,11.0,91,0.00,,,0.00,11,weatherlink.com 1.10,2013-02-23 12:11:00,
2013-02-23 07:26:00,23.4,21.0,30.16,South,178,7.0,9.0,91,0.00,,,0.00,26,weatherlink.com 1.10,2013-02-23 12:26:00,
2013-02-23 07:41:00,23.5,21.0,30.15,SSE,148,5.0,12.0,91,0.00,,,0.00,19,weatherlink.com 1.10,2013-02-23 12:41:00,
2013-02-23 07:58:00,23.5,21.0,30.15,South,173,4.0,7.0,91,0.00,,,0.00,12,weatherlink.com 1.10,2013-02-23 12:58:00,
2013-02-23 08:12:00,23.5,22.0,30.14,SSE,167,4.0,12.0,92,0.00,,,0.00,32,weatherlink.com 1.10,2013-02-23 13:12:00,
2013-02-23 08:27:00,23.5,22.0,30.14,SSE,151,1.0,10.0,92,0.00,,,0.00,40,weatherlink.com 1.10,2013-02-23 13:27:00,
2013-02-23 08:42:00,23.6,22.0,30.14,SSW,198,5.0,8.0,92,0.00,,,0.00,39,weatherlink.com 1.10,2013-02-23 13:42:00,
2013-02-23 08:57:00,23.6,22.0,30.14,SSE,148,5.0,10.0,93,0.00,,,0.00,51,weatherlink.com 1.10,2013-02-23 13:57:00,
2013-02-23 09:13:00,23.7,22.0,30.13,SSE,151,1.0,9.0,93,0.00,,,0.00,49,weatherlink.com 1.10,2013-02-23 14:13:00,
2013-02-23 09:28:00,23.8,22.0,30.12,SSE,154,4.0,8.0,93,0.00,,,0.00,54,weatherlink.com 1.10,2013-02-23 14:28:00,
2013-02-23 09:43:00,23.9,22.0,30.12,SSE,152,3.0,11.0,93,0.00,,,0.00,44,weatherlink.com 1.10,2013-02-23 14:43:00,
2013-02-23 09:58:00,24.0,23.0,30.12,SSE,163,5.0,8.0,94,0.00,,,0.00,37,weatherlink.com 1.10,2013-02-23 14:58:00,
2013-02-23 10:13:00,24.3,23.0,30.12,South,184,0.0,9.0,94,0.00,,,0.00,37,weatherlink.com 1.10,2013-02-23 15:13:00,
2013-02-23 10:28:00,24.4,23.0,30.12,SSW,193,0.0,8.0,94,0.00,,,0.00,40,weatherlink.com 1.10,2013-02-23 15:28:00,
2013-02-23 10:43:00,24.5,23.0,30.11,SE,146,0.0,8.0,94,0.00,,,0.00,53,weatherlink.com 1.10,2013-02-23 15:43:00,
2013-02-23 10:59:00,24.7,23.0,30.10,South,173,0.0,9.0,94,0.00,,,0.00,63,weatherlink.com 1.10,2013-02-23 15:59:00,
2013-02-23 11:14:00,24.9,24.0,30.09,South,177,9.0,9.0,94,0.00,,,0.00,63,weatherlink.com 1.10,2013-02-23 16:14:00,
2013-02-23 11:29:00,25.0,24.0,30.09,SSE,158,4.0,10.0,95,0.00,,,0.00,81,weatherlink.com 1.10,2013-02-23 16:29:00,
2013-02-23 11:44:00,25.3,24.0,30.08,SSE,167,7.0,10.0,95,0.00,,,0.00,65,weatherlink.com 1.10,2013-02-23 16:44:00,
2013-02-23 11:59:00,25.5,24.0,30.07,South,182,1.0,8.0,95,0.00,,,0.00,42,weatherlink.com 1.10,2013-02-23 16:59:00,
2013-02-23 12:14:00,25.6,24.0,30.07,SSW,197,2.0,7.0,94,0.00,,,0.00,49,weatherlink.com 1.10,2013-02-23 17:14:00,
2013-02-23 12:31:00,25.7,25.0,30.06,South,186,2.0,6.0,95,0.00,,,0.00,53,weatherlink.com 1.10,2013-02-23 17:31:00,
2013-02-23 12:46:00,25.8,25.0,30.06,South,180,2.0,9.0,95,0.00,,,0.00,67,weatherlink.com 1.10,2013-02-23 17:46:00,
2013-02-23 13:01:00,25.8,25.0,30.06,SSW,193,6.0,11.0,95,0.00,,,0.00,49,weatherlink.com 1.10,2013-02-23 18:01:00,
2013-02-23 13:16:00,25.9,25.0,30.06,SSE,163,2.0,9.0,95,0.00,,,0.00,49,weatherlink.com 1.10,2013-02-23 18:16:00,
2013-02-23 13:31:00,26.0,25.0,30.06,SSE,155,6.0,10.0,95,0.00,,,0.00,49,weatherlink.com 1.10,2013-02-23 18:31:00,
2013-02-23 13:46:00,26.2,25.0,30.05,SSE,157,2.0,9.0,95,0.00,,,0.00,56,weatherlink.com 1.10,2013-02-23 18:46:00,
2013-02-23 14:01:00,26.1,25.0,30.05,South,170,5.0,11.0,95,0.00,,,0.00,49,weatherlink.com 1.10,2013-02-23 19:01:00,
2013-02-23 14:16:00,26.2,25.0,30.04,SSE,159,6.0,9.0,95,0.00,,,0.00,56,weatherlink.com 1.10,2013-02-23 19:16:00,
2013-02-23 14:31:00,26.4,25.0,30.03,SSE,157,6.0,7.0,95,0.00,,,0.00,40,weatherlink.com 1.10,2013-02-23 19:31:00,
2013-02-23 14:46:00,26.5,25.0,30.03,SSE,159,1.0,9.0,95,0.01,,,0.01,72,weatherlink.com 1.10,2013-02-23 19:46:00,
2013-02-23 15:01:00,26.7,26.0,30.03,SSW,198,1.0,8.0,95,0.01,,,0.01,35,weatherlink.com 1.10,2013-02-23 20:01:00,
2013-02-23 15:17:00,26.8,26.0,30.02,SSW,194,2.0,9.0,95,0.01,,,0.01,49,weatherlink.com 1.10,2013-02-23 20:17:00,
2013-02-23 15:32:00,26.8,26.0,30.02,SE,146,4.0,9.0,95,0.01,,,0.01,25,weatherlink.com 1.10,2013-02-23 20:32:00,
2013-02-23 15:47:00,26.9,26.0,30.02,SSE,155,4.0,8.0,95,0.00,,,0.01,35,weatherlink.com 1.10,2013-02-23 20:47:00,
2013-02-23 16:02:00,26.9,26.0,30.02,South,182,6.0,7.0,95,0.00,,,0.01,32,weatherlink.com 1.10,2013-02-23 21:02:00,
2013-02-23 16:17:00,27.0,26.0,30.01,South,190,4.0,7.0,95,0.01,,,0.02,28,weatherlink.com 1.10,2013-02-23 21:17:00,
2013-02-23 16:32:00,27.0,26.0,30.00,SSW,197,2.0,7.0,95,0.01,,,0.02,26,weatherlink.com 1.10,2013-02-23 21:32:00,
2013-02-23 16:48:00,27.0,26.0,30.00,South,188,2.0,6.0,95,0.01,,,0.02,16,weatherlink.com 1.10,2013-02-23 21:48:00,
2013-02-23 17:03:00,27.0,26.0,30.00,SE,139,4.0,10.0,95,0.02,,,0.03,9,weatherlink.com 1.10,2013-02-23 22:03:00,
2013-02-23 17:18:00,26.9,26.0,30.00,South,178,5.0,8.0,95,0.01,,,0.03,0,weatherlink.com 1.10,2013-02-23 22:18:00,
2013-02-23 17:33:00,26.8,26.0,29.99,SE,138,3.0,7.0,95,0.01,,,0.03,0,weatherlink.com 1.10,2013-02-23 22:33:00,
2013-02-23 17:48:00,26.8,26.0,29.99,SSE,163,5.0,7.0,95,0.01,,,0.03,0,weatherlink.com 1.10,2013-02-23 22:48:00,
2013-02-23 18:04:00,26.7,26.0,29.99,SE,140,1.0,5.0,95,0.00,,,0.03,0,weatherlink.com 1.10,2013-02-23 23:04:00,
2013-02-23 18:18:00,26.8,26.0,29.99,South,190,0.0,6.0,95,0.00,,,0.03,0,weatherlink.com 1.10,2013-02-23 23:18:00,
2013-02-23 18:33:00,26.7,26.0,29.98,South,186,0.0,6.0,95,0.00,,,0.03,0,weatherlink.com 1.10,2013-02-23 23:33:00,
2013-02-23 18:49:00,26.7,26.0,29.98,SSW,200,0.0,5.0,95,0.00,,,0.03,0,weatherlink.com 1.10,2013-02-23 23:49:00,
2013-02-23 19:03:00,26.7,26.0,29.98,South,175,3.0,8.0,95,0.00,,,0.03,0,weatherlink.com 1.10,2013-02-24 00:03:00,
2013-02-23 19:19:00,26.7,26.0,29.97,South,180,0.0,5.0,95,0.00,,,0.03,0,weatherlink.com 1.10,2013-02-24 00:19:00,
2013-02-23 19:34:00,26.7,26.0,29.97,SW,233,0.0,6.0,95,0.00,,,0.03,0,weatherlink.com 1.10,2013-02-24 00:34:00,
2013-02-23 19:49:00,26.7,26.0,29.96,SSW,194,0.0,6.0,95,0.00,,,0.03,0,weatherlink.com 1.10,2013-02-24 00:49:00,
2013-02-23 20:04:00,26.7,26.0,29.96,SSW,207,4.0,7.0,95,0.00,,,0.03,0,weatherlink.com 1.10,2013-02-24 01:04:00,
2013-02-23 20:19:00,26.7,26.0,29.96,South,183,2.0,7.0,95,0.00,,,0.03,0,weatherlink.com 1.10,2013-02-24 01:19:00,
2013-02-23 20:34:00,26.8,26.0,29.96,SSW,196,1.0,7.0,95,0.00,,,0.03,0,weatherlink.com 1.10,2013-02-24 01:34:00,
2013-02-23 20:49:00,26.9,26.0,29.96,SSW,196,0.0,4.0,96,0.01,,,0.04,0,weatherlink.com 1.10,2013-02-24 01:49:00,
2013-02-23 21:04:00,26.9,26.0,29.96,SSW,192,0.0,4.0,96,0.02,,,0.05,0,weatherlink.com 1.10,2013-02-24 02:04:00,
2013-02-23 21:20:00,26.9,26.0,29.95,SSW,194,0.0,2.0,96,0.03,,,0.06,0,weatherlink.com 1.10,2013-02-24 02:20:00,
2013-02-23 21:35:00,26.9,26.0,29.95,SSW,194,0.0,2.0,96,0.05,,,0.08,0,weatherlink.com 1.10,2013-02-24 02:35:00,
2013-02-23 21:50:00,26.9,26.0,29.94,SSW,194,0.0,1.0,95,0.04,,,0.08,0,weatherlink.com 1.10,2013-02-24 02:50:00,
2013-02-23 22:05:00,27.0,26.0,29.93,SSW,194,0.0,1.0,96,0.04,,,0.09,0,weatherlink.com 1.10,2013-02-24 03:05:00,
2013-02-23 22:20:00,27.1,26.0,29.92,SSW,194,0.0,1.0,95,0.03,,,0.09,0,weatherlink.com 1.10,2013-02-24 03:20:00,
2013-02-23 22:35:00,27.0,26.0,29.92,SSW,194,2.0,2.0,95,0.01,,,0.09,0,weatherlink.com 1.10,2013-02-24 03:35:00,
2013-02-23 22:50:00,26.9,26.0,29.91,SSW,194,0.0,1.0,95,0.01,,,0.09,0,weatherlink.com 1.10,2013-02-24 03:50:00,
2013-02-23 23:05:00,26.9,26.0,29.91,SSW,194,0.0,0.0,95,0.01,,,0.10,0,weatherlink.com 1.10,2013-02-24 04:05:00,
2013-02-23 23:20:00,27.0,26.0,29.91,SSW,194,0.0,0.0,95,0.01,,,0.10,0,weatherlink.com 1.10,2013-02-24 04:20:00,
2013-02-23 23:35:00,27.1,26.0,29.90,SSW,194,0.0,0.0,95,0.01,,,0.10,0,weatherlink.com 1.10,2013-02-24 04:35:00,
2013-02-23 23:50:00,27.3,26.0,29.89,SSW,194,0.0,0.0,95,0.00,,,0.10,0,weatherlink.com 1.10,2013-02-24 04:50:00,